Content
SEND FEEDBACK

Daily
Averages
Monthly
Summary
United States of America

NEW YORK - UPPER EAST SIDE, NEW YORK


Home > North America > United States > New York
Elevation: 132 feet     Latitude: 40 47N     Longitude: 073 58W

WEATHER
 
SELECT A DAY
Number of Records: 153,247;   Date Range: 11/1/95 - 12/26/14
 
SHARE

PRINT THIS DATA

[ ← Previous Day ]
WEATHER ALMANAC - JANUARY 3, 2013
[ Next Day → ]
[ °C ]   °F
Weather ElementAverageHighLow
Temperature28.6 °F32 °F (2:51 pm)24.1 °F (7:51 am)
Dewpoint14.3 °F17.1 °F (11:51 pm)12 °F (1:51 pm)
Humidity55.6 %66 % (5:51 am)44 % (2:51 pm)
Barometer30.13 in30.19 in (9:51 am)30.06 in (11:51 pm)
Wind Speed4.5 mph9.2 mph (1:51 pm)
Wind Gust18.4 mph (10:51 pm)
Weather ElementAverage
Visibility10 mi
Wind DirectionSSE (153.5 °)

Weather ElementTotal
Precipitation---
Heating Degree Days37 (Base 65)
Averaged from 23 records on January 3, 2013
WEATHER CONDITIONS BREAKOUT
WIND DIRECTION BREAKOUT
WEATHER BY HOUR - JANUARY 3, 2013
[ °C ]   °F
Local TimeTemperatureDewpointHumidityBarometerVisibilityWind DirectionWind SpeedGust SpeedPrecipitationEventsConditions
1:51 AM28.0 °F15.1 °F58 %30.17 in10.0 miVariable3.5 mphClear
2:51 AM28.0 °F15.1 °F58 %30.17 in10.0 miCalmClear
3:51 AM27.0 °F15.1 °F61 %30.17 in10.0 miVariable4.6 mphPartly Cloudy
4:51 AM26.1 °F15.1 °F63 %30.17 in10.0 miCalmClear
5:51 AM25.0 °F15.1 °F66 %30.17 in10.0 miWNW (290°)3.5 mphClear
6:51 AM25.0 °F14.0 °F63 %30.18 in10.0 miCalmClear
7:51 AM24.1 °F14.0 °F65 %30.18 in10.0 miCalmClear
8:51 AM24.1 °F14.0 °F65 %30.18 in10.0 miWest (280°)3.5 mphClear
9:51 AM25.0 °F15.1 °F66 %30.19 in10.0 miWNW (300°)4.6 mphClear
10:51 AM26.1 °F14.0 °F60 %30.17 in10.0 miWest (280°)5.8 mphClear
11:51 AM28.0 °F12.9 °F53 %30.14 in10.0 miWNW (300°)3.5 mphClear
12:51 PM30.0 °F12.9 °F49 %30.10 in10.0 miWSW (240°)8.1 mphPartly Cloudy
1:51 PM30.9 °F12.0 °F46 %30.09 in10.0 miWNW (290°)9.2 mphClear
2:51 PM32.0 °F12.0 °F44 %30.07 in10.0 miVariable3.5 mphClear
3:51 PM32.0 °F12.9 °F45 %30.07 in10.0 miCalmClear
4:51 PM30.9 °F14.0 °F50 %30.08 in10.0 miWest (260°)8.1 mph16.1 mphPartly Cloudy
5:51 PM30.9 °F14.0 °F50 %30.09 in10.0 miNorthClear
6:51 PM30.9 °F15.1 °F52 %30.10 in10.0 miWest (260°)8.1 mph17.3 mphScattered Clouds
7:51 PM30.9 °F14.0 °F50 %30.10 in10.0 miWest (260°)5.8 mph17.3 mphOvercast
8:51 PM30.9 °F15.1 °F52 %30.09 in10.0 miWest (270°)8.1 mph16.1 mphOvercast
9:51 PM30.9 °F15.1 °F52 %30.09 in10.0 miNorthOvercast
10:51 PM30.9 °F16.0 °F54 %30.08 in10.0 miWest (270°)8.1 mph18.4 mphOvercast
11:51 PM30.9 °F17.1 °F57 %30.06 in10.0 miSW (230°)6.9 mphOvercast
Hourly data recorded from KNYC, located miles away from New York - Upper East Side, New York







STORIES FROM OUR PARTNERS